Regional Weather Roundup
Issued by NWS

Home | Current Version | Previous Version | Graphics & Text | Print | Product List | Glossary On
Versions: 1 2 3 4 5 6 7 8 9 10 11 12 13 14 15 16 17 18 19 20 21 22 23 24 25 26 27 28 29 30 31 32 33 34 35 36 37 38 39 40 41 42 43 44 45 46 47 48 49 50
000
ASUS43 KIND 031459
RWRIN

WEATHER ROUNDUP FOR INDIANA
NATIONAL WEATHER SERVICE INDIANAPOLIS IN
1000 AM EST TUE MAR 03 2015

NOTE: "FAIR" INDICATES FEW OR NO CLOUDS BELOW 12,000 FEET WITH NO
SIGNIFICANT WEATHER AND/OR OBSTRUCTIONS TO VISIBILITY.

* - STATION DOES NOT REPORT WEATHER SUCH AS PRECIPITATION OR FOG.

+ - STATION NOT QUALITY CONTROLLED BY THE NATIONAL WEATHER SERVICE.
    USE DATA WITH CAUTION...ESPECIALLY DEWPOINT AND RELATIVE
    HUMIDITY OBSERVATIONS.

INZ001>003-010>013-019-020-031600-
NORTHWEST INDIANA

CITY           SKY/WX    TMP DP  RH WIND       PRES   REMARKS
GARY /AIRPORT/ LGT RAIN  30  25  80 SE21      29.83F WCI  17
VALPARAISO     LGT SNOW  27  27 100 S16G24    29.85F FOG     WCI  14

$$

LMZ046-743>745-031600-
SOUTHERN LAKE MICHIGAN

STATION/POSITION TIME  TEMP WIND        PRES
                       AIR  DIR/SP/G
                 (UTC) (F)  (DEG/KT/KT) (MB)
MICHIGAN CITY    1400   26  130/ 14/ 18   N/A

$$

INZ004-005-014>016-021>024-031600-
NORTH CENTRAL INDIANA

CITY           SKY/WX    TMP DP  RH WIND       PRES   REMARKS
ELKHART        CLOUDY    27  19  74 SE13      29.88F WCI  16
GOSHEN         MIX PCPN  27  22  81 SE16      29.89F WCI  15
PERU/GRISSOM   FRZ RAIN  28  27  93 SE8       29.89F FOG     WCI  20
SOUTH BEND     MIX PCPN  28  23  81 S16       29.89F WCI  16

$$

INZ006>009-017-018-025>027-031600-
NORTHEAST INDIANA

CITY           SKY/WX    TMP DP  RH WIND       PRES   REMARKS
ANGOLA *+      CLOUDY    23  19  86 SE12      29.92F WCI  12
FORT WAYNE     CLOUDY    27  21  78 SE17      29.97F HAZE    WCI  14

$$

INZ028-029-035-036-043>045-051>053-031600-
WEST CENTRAL INDIANA

CITY           SKY/WX    TMP DP  RH WIND       PRES   REMARKS
CRAWFORDSVL +  LGT SNOW  29  24  82 SE13      29.87F WCI  18
GREENCASTLE +  CLOUDY    30  27  86 SE13      29.91F FOG     WCI  20
LAFAYETTE      FRZ RAIN  28  26  92 SE12      29.90F FOG     WCI  18
TERRE HAUTE    MIX PCPN  32  29  88 S14       29.90F FOG     WCI  22

$$

INZ030>032-037>040-046>048-054>057-064-065-031600-
CENTRAL INDIANA

CITY           SKY/WX    TMP DP  RH WIND       PRES   REMARKS
ANDERSON       CLOUDY    28  21  74 SE12G23   29.96F FOG     WCI  18
GREENWOOD *+   CLOUDY    28  23  80 SE15      29.94F WCI  17
INDIANAPOLIS   FRZ RAIN  29  25  85 SE15      29.91F FOG     WCI  18
-EAGLE CREEK   CLOUDY    28  24  85 SE12G17   29.91F FOG     WCI  18
KOKOMO *+      CLOUDY    28  25  86 SE14      29.90F WCI  17
MT COMFORT *+  CLOUDY    30  19  64 S16       29.93F WCI  19
SHELBYVILLE    FRZ RAIN  32  25  75 SE17      29.95F WCI  21

$$

INZ033-034-041-042-049-050-058-059-031600-
EAST CENTRAL INDIANA

CITY           SKY/WX    TMP DP  RH WIND       PRES   REMARKS
MUNCIE         MIX PCPN  29  23  78 S12       29.94F WCI  19

$$

INZ060-061-067>069-081>083-085>088-031600-
SOUTHWEST INDIANA

CITY           SKY/WX    TMP DP  RH WIND       PRES   REMARKS
EVANSVILLE     CLOUDY    40  35  83 S12       29.97F
HUNTINGBURG *+ CLOUDY    36  30  80 S8        29.98F

$$

INZ062-063-066-070>080-084-089>092-031600-
SOUTH CENTRAL AND SOUTHEAST INDIANA

CITY           SKY/WX    TMP DP  RH WIND       PRES   REMARKS
BLOOMINGTON    CLOUDY    31  29  92 S10       29.93F FOG     WCI  22
SEYMOUR +      DRIZZLE   34  28  80 SE10      29.98F WCI  26

$$




USA.gov is the U.S. government's official web portal to all federal, state and local government web resources and services.